Location: Schommer Observatory
(40.5200°N, 74.4500°W)
Time: 12:18:34
(UTC-04:00)

Tiangong 2 - Pass Details

Date: 21 March 2019
Orbit: 378 x 390 km, 42.8° (Epoch: 26 April)

Event Time Altitude Azimuth Distance (km) Brightness Sun altitude
Exits shadow 04:44:13 21° 88° (E) 913 3.6 -25.9°
Drops below altitude 10° 04:45:28 10° 93° (E) 1,403 4.7 -25.7°
Sets 04:47:33 0° 96° (E) 2,258 5.9 -25.3°
